Theta_e
335 337 339 340 340 343 341 341 345 342 337 337 337 334 334 333 334 337 338 339 339 337 338 340 338 340 345 349 349 348 349 349 348 347 346 346 346 348 347 347 348 349 348
330 331 332 333 333 336 337 336 339 344 342 336 335 334 332 330 328 332 334 333 335 335 338 338 340 339 342 347 348 349 348 348 348 347 345 344 344 344 344 344 344 343 342
322 324 322 322 328 329 333 333 335 340 341 342 342 338 335 332 331 335 336 333 335 338 339 339 339 339 340 343 348 349 348 347 348 347 346 345 344 342 341 340 340 339 338
317 318 317 317 318 321 322 322 326 330 334 337 337 338 340 342 343 343 342 341 340 338 336 336 335 336 336 338 340 345 346 347 346 347 346 344 342 341 340 339 338 337 336
315 315 314 315 316 315 316 316 318 321 325 328 330 333 337 337 337 338 339 338 338 336 337 333 330 333 335 336 338 340 347 346 345 347 346 344 341 340 339 338 337 336 335
314 313 313 314 314 314 313 314 315 316 318 324 320 323 332 333 334 335 334 334 333 333 332 332 336 337 338 339 338 339 341 343 342 342 345 342 342 341 339 338 336 335 335
313 314 312 313 314 313 314 315 314 314 314 318 315 318 319 324 334 333 333 331 330 329 328 329 328 329 329 330 330 330 332 333 334 336 338 338 339 340 340 338 336 335 335
313 312 313 313 314 312 314 314 314 312 312 314 311 311 310 315 324 330 330 328 327 329 326 325 325 324 324 325 323 323 325 327 329 329 330 330 332 334 335 336 336 336 335
313 314 313 313 314 313 312 314 314 313 310 313 314 310 308 309 312 319 322 324 325 323 323 324 322 322 321 320 320 321 322 323 325 326 327 328 330 330 331 332 333 334 334
312 313 314 314 314 313 314 314 314 311 310 311 313 314 314 311 306 306 314 315 322 322 326 325 322 318 317 316 316 317 317 319 321 322 324 326 327 328 328 329 330 331 332
313 313 314 314 315 313 315 316 316 314 312 308 309 310 312 312 315 310 306 310 315 320 321 319 321 318 315 313 313 314 315 316 317 318 322 323 322 322 323 324 324 324 326
311 313 313 314 315 314 316 316 315 316 314 314 311 310 309 306 308 308 306 306 311 317 316 319 319 317 315 313 312 312 314 313 313 314 315 318 320 321 321 321 321 322 323
308 310 312 312 313 314 316 316 315 314 313 312 313 312 312 311 310 309 309 309 309 313 312 311 313 312 311 312 313 314 312 311 313 313 314 314 315 316 318 319 318 319 319
308 311 311 312 314 314 314 313 311 310 311 310 311 311 310 309 310 311 309 307 305 306 308 310 313 310 310 310 311 312 311 310 309 310 310 312 313 314 315 316 316 316 315
308 310 312 313 313 312 312 312 310 310 310 310 310 309 307 307 308 308 308 308 306 302 302 307 306 312 311 311 311 313 310 308 308 308 308 309 311 312 314 314 315 315 314
309 309 310 311 311 311 310 310 307 308 308 309 309 309 308 307 307 307 307 307 306 304 300 305 306 310 311 310 310 312 311 308 307 307 308 310 310 311 312 312 313 314 313
307 306 307 309 309 310 311 309 307 307 307 308 308 308 307 309 306 304 306 307 306 306 302 305 307 310 310 310 310 311 310 309 309 307 308 310 309 310 312 312 312 313 312
307 306 306 307 307 308 311 309 307 306 305 305 306 306 306 306 308 309 306 307 306 307 304 302 305 306 307 309 310 309 308 308 308 307 307 308 307 309 310 311 310 311 310
307 306 305 305 305 308 308 309 309 308 306 306 306 306 305 306 306 306 307 306 305 305 304 302 301 304 305 306 306 307 306 307 307 306 306 308 307 308 308 309 309 308 308
307 306 304 304 305 308 309 310 309 309 309 308 308 308 306 306 307 307 306 306 306 305 304 302 301 301 302 304 304 301 301 304 303 306 306 306 306 306 306 306 306 306 306
309 307 303 304 305 305 303 307 309 308 308 307 307 306 306 306 304 304 304 306 306 304 302 301 300 300 300 301 300 301 299 301 302 303 302 303 306 308 309 305 304 304 304
310 306 303 303 304 301 298 299 302 305 305 305 304 306 307 304 304 303 302 302 303 303 303 301 300 299 301 301 301 300 299 298 296 304 303 300 304 305 309 305 301 301 302
310 306 303 303 303 303 297 297 298 304 304 305 305 304 303 303 304 303 303 304 304 302 301 303 302 302 302 302 302 300 299 298 297 301 303 299 303 303 305 304 301 302 303
309 306 305 303 303 302 297 296 297 305 305 304 304 303 303 303 301 300 302 302 303 304 304 303 304 305 304 303 302 301 300 299 300 299 303 296 302 301 303 304 301 301 301
308 306 303 303 303 304 296 295 299 304 304 303 303 303 301 301 295 295 300 301 302 303 304 299 299 297 296 297 298 299 297 295 293 294 301 300 301 296 300 300 305 300 299
303 302 302 303 300 303 297 294 297 302 302 301 303 302 299 297 294 293 298 299 297 298 299 299 300 301 301 301 299 299 298 293 293 292 300 295 298 297 296 301 301 302 300
Wind_Speed
5 5 6 6 7 8 8 8 7 6 6 5 5 4 1 5 5 2 3 12 11 9 15 9 8 12 12 14 10 11 11 10 10 9 7 7 7 7 7 7 7 10 10
7 7 6 6 7 8 8 7 8 7 7 7 8 7 5 2 5 5 3 4 11 13 15 13 14 15 17 17 14 11 11 10 11 9 8 8 8 8 9 9 9 11 10
9 9 7 8 8 8 10 9 9 8 7 8 10 10 9 7 7 8 7 5 6 17 17 17 17 15 16 16 12 12 13 13 13 13 12 12 12 12 12 11 10 10 9
12 9 8 8 9 8 8 9 9 9 8 8 8 8 7 9 10 9 7 6 6 6 10 16 15 13 14 15 15 13 13 14 14 15 15 14 15 14 14 13 13 12 12
11 9 7 8 9 8 7 8 8 8 8 8 10 9 8 7 7 7 7 7 7 6 5 7 7 9 12 14 16 17 16 15 15 15 16 16 16 16 16 15 14 14 14
11 9 7 9 9 8 8 9 10 8 9 8 11 11 9 9 8 5 4 4 2 1 2 4 2 6 11 11 9 8 8 11 12 16 17 18 18 18 17 16 16 15 15
10 9 8 8 8 8 9 9 8 9 8 8 10 8 10 10 3 3 4 4 5 5 6 5 5 4 4 11 14 12 11 11 10 10 10 17 16 17 18 19 19 18 17
9 8 8 7 9 7 9 9 9 8 6 7 7 9 6 6 1 4 5 5 7 5 5 7 7 8 7 5 9 12 12 13 13 11 10 10 10 15 17 19 20 19 19
10 9 9 8 8 7 7 8 8 8 7 7 8 5 5 5 10 4 5 5 6 3 4 4 6 6 6 6 7 9 13 13 13 13 13 14 13 15 18 21 22 22 22
9 9 9 8 8 6 8 7 6 5 5 9 6 5 4 3 3 7 7 9 5 5 2 2 4 6 7 4 7 9 12 12 12 14 14 14 14 10 11 12 15 18 21
8 9 9 8 8 6 7 7 7 7 4 3 5 5 6 5 4 5 8 8 7 5 4 3 4 4 5 4 4 6 11 11 12 12 14 9 6 7 8 8 7 6 8
6 8 9 8 8 9 9 7 8 7 7 5 3 4 4 4 7 3 4 7 9 4 4 3 3 4 5 6 7 9 8 10 11 12 12 12 11 12 11 11 10 10 10
7 9 9 8 7 8 8 7 7 7 8 7 8 6 4 5 4 3 3 3 4 3 1 1 3 1 5 5 6 10 9 11 11 11 11 11 12 13 12 11 11 11 8
7 9 7 7 7 7 7 7 6 7 8 7 10 9 6 6 6 5 4 4 3 3 3 2 3 3 4 4 7 9 7 10 13 13 13 13 13 13 13 14 13 11 8
6 9 7 7 7 8 9 8 8 8 8 8 8 8 7 6 6 6 5 5 5 6 7 4 6 7 7 5 6 7 7 11 12 13 15 15 14 14 13 13 14 13 11
9 9 9 8 8 9 9 9 8 8 7 6 6 9 8 7 6 5 6 5 5 6 6 6 6 6 7 7 6 8 8 11 8 12 14 14 14 14 14 14 14 13 12
9 9 8 7 7 8 8 8 9 9 9 8 8 9 9 9 7 6 5 5 5 6 7 7 5 7 9 9 9 8 8 8 8 9 13 11 13 12 14 13 12 13 13
8 9 8 8 7 6 6 7 8 8 8 8 8 9 9 7 9 7 5 6 5 5 7 10 9 8 9 9 9 10 8 8 9 10 14 10 13 13 10 9 8 9 9
8 9 9 9 8 8 6 5 6 7 7 6 7 8 8 9 8 7 7 6 5 4 4 5 7 6 6 6 9 8 9 9 7 12 6 8 10 11 9 7 2 1 2
6 8 9 8 8 8 8 7 6 7 9 9 8 8 9 9 10 10 8 8 6 7 6 6 7 7 6 7 8 9 9 9 9 8 7 7 10 8 6 3 2 3 5
5 7 9 8 10 9 9 11 9 9 9 11 11 10 9 11 12 10 8 10 10 9 8 8 8 8 8 9 10 9 10 10 9 6 7 9 8 5 1 1 2 6 7
5 6 9 9 8 6 12 14 12 9 10 10 10 10 10 9 14 14 12 13 13 11 12 10 9 10 11 11 9 10 11 10 9 7 9 9 8 6 2 4 8 9 9
4 5 7 8 8 8 13 14 15 7 8 9 9 10 10 9 11 13 14 13 11 9 13 11 12 11 11 11 11 12 13 12 12 11 8 9 9 6 4 5 8 9 7
4 4 6 6 7 7 11 13 16 7 6 8 9 9 10 12 13 14 14 15 14 9 7 6 8 9 9 8 10 12 14 12 10 8 7 7 6 7 7 5 7 8 6
5 5 6 6 7 8 11 13 12 7 9 9 8 8 11 13 14 15 15 14 13 9 5 3 6 7 7 9 7 11 10 9 9 9 8 6 4 5 9 3 2 6 2
5 5 5 4 4 7 8 11 10 6 8 8 9 11 7 13 13 12 13 12 12 12 14 14 12 10 9 9 7 8 6 6 6 5 1 3 6 3 5 3 3 4 2
Wind_Direction
7 11 23 12 4 357 356 344 325 316 313 301 304 301 317 108 69 336 312 324 319 330 312 303 293 311 293 251 226 233 234 216 222 218 211 214 221 206 210 200 191 151 157
14 18 15 18 11 3 354 352 342 324 306 294 299 295 271 216 144 176 237 282 316 308 289 284 286 261 254 254 232 225 228 220 218 209 211 209 208 197 188 186 167 161 167
17 11 19 12 4 2 354 353 354 341 323 312 300 293 288 247 232 218 214 228 193 224 239 262 261 261 269 264 251 230 223 218 213 210 201 201 201 200 194 189 181 180 176
15 13 11 8 357 355 357 354 350 341 338 327 322 310 295 280 283 278 271 234 237 239 248 246 246 249 258 258 255 251 244 218 215 208 202 204 203 201 202 197 193 192 191
16 8 10 4 351 350 352 348 341 336 328 319 313 308 297 291 287 285 278 270 271 267 275 244 271 276 264 266 264 261 244 219 212 213 206 207 208 208 206 204 202 200 200
15 8 8 5 358 355 352 351 339 331 317 311 313 302 296 296 286 286 295 273 279 273 4 6 10 78 44 42 28 4 321 265 253 224 215 212 210 210 211 211 212 212 212
16 18 9 7 360 4 355 353 345 335 325 332 299 308 298 286 314 14 44 46 58 45 39 45 38 34 41 45 34 23 13 0 355 3 274 241 227 221 216 216 218 218 221
15 14 10 8 8 356 2 359 359 343 331 349 330 298 302 302 30 26 26 22 27 23 56 54 50 44 32 28 26 17 9 355 343 329 310 305 300 267 251 245 243 231 228
13 12 13 7 4 356 4 1 3 356 342 339 354 319 319 341 338 298 14 24 7 34 56 67 56 49 39 30 20 12 5 356 341 325 311 306 289 280 274 266 260 252 246
10 7 6 7 5 358 7 8 10 349 343 343 347 2 325 279 305 306 311 319 333 327 17 41 54 59 55 33 26 12 353 345 336 333 310 286 284 296 304 303 276 272 258
11 11 8 3 5 5 6 4 8 13 14 313 334 330 333 323 308 318 316 328 313 8 25 338 38 67 53 31 357 355 342 336 333 325 321 314 299 296 299 302 305 295 295
2 14 3 6 9 2 5 12 8 18 7 356 338 338 331 331 332 309 301 313 319 17 24 31 52 41 16 353 346 333 345 338 334 326 323 321 303 301 292 286 288 281 275
0 3 353 1 2 5 11 16 24 28 27 24 22 16 23 18 335 283 295 315 311 5 3 250 48 125 6 351 352 345 350 346 336 336 326 313 306 301 292 283 280 279 280
3 0 359 5 12 25 25 25 34 26 29 30 25 19 12 13 4 14 359 333 307 262 243 344 40 36 9 344 3 340 345 353 344 338 332 323 309 298 290 278 269 265 264
3 24 26 30 33 34 41 43 41 30 31 31 33 29 19 16 13 7 358 355 337 325 330 351 335 14 346 340 360 339 332 347 328 332 325 316 305 301 288 279 259 249 240
19 23 25 28 40 46 41 29 28 27 22 24 20 14 8 6 4 11 5 5 8 342 326 0 351 336 333 334 343 326 324 305 328 325 323 317 306 297 293 279 264 239 230
21 26 26 33 35 37 32 35 36 34 38 34 26 23 21 10 4 359 350 352 351 345 326 331 312 327 319 325 326 330 321 318 320 337 325 325 326 309 285 268 261 232 231
27 23 22 23 12 3 15 29 37 36 34 28 21 13 13 5 7 6 342 344 339 324 318 322 340 320 323 327 325 321 329 320 324 326 324 317 330 319 309 269 254 247 258
30 25 20 17 9 6 0 13 17 18 13 5 358 351 347 345 351 349 345 342 341 329 323 315 316 317 317 332 331 316 327 316 303 317 299 277 326 321 325 323 114 157 326
26 20 16 16 14 15 18 5 360 353 350 347 340 335 331 331 326 326 324 321 313 309 316 307 315 330 327 346 316 330 329 320 324 321 320 291 282 289 298 22 54 2 350
14 16 17 21 21 24 20 1 355 347 343 340 338 342 336 329 322 317 304 306 304 298 304 308 312 317 325 334 332 331 320 325 320 314 322 314 314 308 224 152 321 315 309
13 18 24 16 13 14 2 2 351 339 339 334 330 336 337 336 343 329 319 300 289 287 291 298 304 316 312 320 330 329 318 324 319 329 324 308 298 299 285 300 12 312 289
14 30 20 14 13 4 357 348 345 334 335 344 347 348 344 355 347 339 331 310 293 260 265 288 291 305 312 331 323 312 319 312 310 315 318 308 297 300 314 294 48 354 318
25 15 7 4 355 359 349 346 341 355 3 10 6 2 354 352 2 346 329 332 331 332 342 312 300 305 311 325 316 310 305 291 289 307 291 278 315 316 312 306 90 2 5
22 6 353 344 346 350 5 349 336 353 5 8 8 12 7 356 353 343 335 337 333 344 336 242 264 288 282 272 291 309 306 311 308 305 309 298 304 293 282 338 72 14 11
0 344 342 328 334 343 359 343 347 345 4 354 356 359 47 357 337 340 339 335 333 339 324 321 313 295 259 296 327 315 308 288 300 295 320 294 306 318 306 59 300 11 259